Tracking 30970 objects as of 3-Jul-2025
HD Live streaming from Space Station
objects crossing your sky now

COSMOS 734

Track COSMOS 734 now!
10-day predictions
COSMOS 734 is classified as:


NORAD ID: 7823
Int'l Code: 1975-045C
Perigee: 1,449.8 km
Apogee: 1,478.5 km
Inclination: 74.0 °
Period: 115.0 minutes
Semi major axis: 7835 km
RCS: 0.7092 m2 (medium)
Launch date: May 28, 1975
Source: Commonwealth of Independent States (former USSR) (CIS)
Launch site: PLESETSK MISSILE AND SPACE COMPLEX (PKMTR)
Your satellite tracking list
Your tracking list is empty




NASA's NSSDC Master Catalog

Two Line Element Set (TLE):
1 07823U 75045C   25183.84680309  .00000002  00000-0  11586-3 0  9994
2 07823  74.0197 329.4164 0018299 268.5896 203.2821 12.51791612289352
Source of the keplerian elements: AFSPC